User: anonymous   Login
Location: Unspecified
(0.0000°N, 0.0000°E)
Time: 13:42:18
(UTC+00:00)
Language:

TACSAT 4 - Orbit

View from above orbital plane
View from above orbital plane
View from above satellite
View from above satellite

Ground track
Ground track

The orbit data is extracted from the following two-line orbital elements,

1 37818U 11052A   18171.70274742 -.00000370 +00000-0 -74549-3 0  9991
2 37818 063.1737 241.8786 4559109 216.3243 342.3090 06.02634667148055
Epoch (UTC): 20 June 2018 16:51:57
Eccentricity: 0.4559109
inclination: 63.1737°
perigee height: 562 km
apogee height: 12193 km
right ascension of ascending node: 241.8786°
argument of perigee: 216.3243°
revolutions per day: 6.02634667
mean anomaly at epoch: 342.3090°
orbit number at epoch: 14805

The dashed part of the orbit path shows where the satellite is in the earth's shadow,  

DLR